Bob Hope Airport

Airport
ICAO code: 
KBUR
IATA Code: 
BUR
Summary
ICAO Region: 
NAM
Territory: 
Location: 
Burbank, California
Serving: 
Los Angeles
Elevation: 
778 ft
Coordinates: 
Aerial View: 
34° 12' 2.002" N, 118° 21' 29.999" W
Airport RE: 
Engineered Materials Arresting System
Metar
Observation
KBUR 020053Z 10006KT 9SM CLR 24/07 A3003 RMK AO2 SLP160 T02440072 $
Station
Burbank, Burbank-Glendale-Pasadena Airport
Date/Time
2021-12-02 00:53:00
Wind direction
100°
Wind speed
06 kts
Lowest cloud amount
n/a
Temperature
24.4°C
Dew point
7.2°C
Humidity
33%
Weather condition
n/a

Bob Hope Airport, is a public airport located 5 km northwest of the central business district of Burbank, a city in Los Angeles County, California, United States.

Climatology

Mediterranean climate or Dry-Summer Subtropical climate(Köppen climate classification Csa)

Runways

Designator Length Width Surface Rops
8/26 1768 46 ASP Yes/Yes
15/33 2099 46 ASP Yes/Yes
Airport map: 
Aerial View: 

Accidents and Serious Incidents at or in the vicinity of KBUR

SKYbrary Partners:

Safety knowledge contributed by: